Weather History for Concord, NH

Change the Weather History Date:

Thursday, February 27, 2014

  Actual Average Record
Temperature  
Mean Temperature 12 °F 28 °F  
Max Temperature 24 °F 38 °F 68 °F (1880)
Min Temperature 0 °F 17 °F -16 °F (1963)
Degree Days  
Heating Degree Days 53 37  
Month to date heating degree days 1217 1100  
Since 1 July heating degree days 5414 5222  
Cooling Degree Days 0 0  
Month to date cooling degree days 0 0  
Year to date cooling degree days 0 0  
Moisture  
Dew Point 1 °F    
Average Humidity 61    
Maximum Humidity 87    
Minimum Humidity 35    
Precipitation  
Precipitation 0.01 in 0.10 in 0.78 in (1913)
Month to date precipitation 4.11 2.52  
Year to date precipitation 7.32 5.22  
Snow  
Snow 0.20 in 0.40 in 7.00 in (2011)
Month to date snowfall 35.3 11.9  
Since 1 July snowfall 69.8 47.1  
Snow Depth 21.00 in    
Sea Level Pressure  
Sea Level Pressure 29.73 in    
Wind  
Wind Speed 7 mph (WSW)    
Max Wind Speed 26 mph    
Max Gust Speed 35 mph    
Visibility 9 miles    
Events Snow    
T = Trace of Precipitation, MM = Missing Value Source: NWS Daily Summary

Daily Weather History Graph

Daily Weather History Graph

Search for Another Location

Airport:

Trip Planner

Search our weather history database for the weather conditions in past years. The results will help you decide how hot, cold, wet, or windy it might be!

Date:

Astronomy

Feb. 27, 2014 Rise Set
Actual Time 6:25 AM EST 5:32 PM EST
Civil Twilight 5:56 AM EST 6:01 PM EST
Nautical Twilight 5:23 AM EST 6:34 PM EST
Astronomical Twilight 4:50 AM EST 7:07 PM EST
Moon 4:57 AM EST (2/27) 3:53 PM EST (2/27)
Length of Visible Light 12h 04m
Length of Day
11h 07m
Waning Crescent, 4% of the Moon is Illuminated
Feb 27
Waning Crescent
Mar 1
New
Mar 8
First Quarter
Mar 16
Full
Mar 23
Last Quarter

Hourly Weather History & Observations

Time (EST) Temp. Windchill Dew Point Humidity Pressure Visibility Wind Dir Wind Speed Gust Speed Precip Events Conditions
12:51 AM 1.0 °F - -5.1 °F 75% 29.87 in 10.0 mi Calm Calm - N/A   Clear
1:51 AM 1.0 °F - -5.1 °F 75% 29.87 in 10.0 mi Calm Calm - N/A   Mostly Cloudy
2:51 AM 3.9 °F - -2.9 °F 73% 29.85 in 10.0 mi Calm Calm - N/A   Mostly Cloudy
3:51 AM 1.0 °F - -2.0 °F 87% 29.83 in 10.0 mi Calm Calm - N/A   Overcast
4:51 AM 1.9 °F - -2.0 °F 83% 29.81 in 10.0 mi Calm Calm - N/A   Overcast
5:51 AM 1.0 °F -6.7 °F -2.9 °F 83% 29.79 in 10.0 mi ESE 3.5 mph - N/A   Mostly Cloudy
6:51 AM 1.9 °F - -2.9 °F 80% 29.76 in 10.0 mi Calm Calm - N/A   Partly Cloudy
7:51 AM 3.9 °F - -2.0 °F 76% 29.75 in 10.0 mi Calm Calm - N/A   Partly Cloudy
8:51 AM 9.0 °F 0.6 °F -2.9 °F 59% 29.74 in 10.0 mi South 4.6 mph - N/A   Clear
9:51 AM 14.0 °F 2.9 °F -4.0 °F 45% 29.73 in 10.0 mi SSE 8.1 mph - N/A   Clear
10:51 AM 17.1 °F 5.8 °F -4.0 °F 39% 29.70 in 10.0 mi SE 9.2 mph - N/A   Mostly Cloudy
11:51 AM 19.9 °F 8.6 °F -4.0 °F 35% 29.64 in 10.0 mi South 10.4 mph - N/A   Mostly Cloudy
12:51 PM 21.0 °F 10.6 °F -0.9 °F 38% 29.60 in 10.0 mi South 9.2 mph - N/A   Overcast
1:51 PM 23.0 °F 11.1 °F 1.0 °F 39% 29.58 in 10.0 mi West 12.7 mph 18.4 mph N/A   Overcast
2:51 PM 24.1 °F 12.0 °F 6.1 °F 46% 29.60 in 10.0 mi WSW 13.8 mph 21.9 mph 0.00 in   Overcast
3:51 PM 23.0 °F 11.7 °F 8.1 °F 53% 29.63 in 10.0 mi West 11.5 mph 19.6 mph N/A   Scattered Clouds
4:51 PM 21.9 °F 11.7 °F 3.9 °F 46% 29.64 in 10.0 mi WNW 9.2 mph - 0.00 in   Clear
5:51 PM 17.1 °F - 3.0 °F 54% 29.65 in 10.0 mi Calm Calm - N/A   Clear
6:51 PM 12.0 °F - 1.0 °F 61% 29.67 in 10.0 mi Calm Calm - N/A   Scattered Clouds
7:35 PM 17.1 °F 1.5 °F 9.0 °F 71% 29.69 in 1.8 mi West 17.3 mph 35.7 mph 0.00 in Snow Light Snow
7:38 PM 17.1 °F 1.5 °F 10.9 °F 77% 29.70 in 1.0 mi WNW 17.3 mph 35.7 mph 0.00 in Snow Light Snow
7:41 PM 17.1 °F 3.0 °F 12.0 °F 81% 29.70 in 0.5 mi West 13.8 mph 35.7 mph 0.00 in Snow Snow
7:48 PM 17.6 °F 8.2 °F 12.2 °F 79% 29.69 in 1.0 mi West 6.9 mph 18.4 mph 0.01 in Snow Light Snow
7:49 PM 17.1 °F 7.6 °F 12.9 °F 84% 29.71 in 1.0 mi West 6.9 mph 18.4 mph 0.01 in Snow Light Snow
7:51 PM 17.1 °F 7.6 °F 12.0 °F 81% 29.69 in 2.0 mi WSW 6.9 mph - 0.00 in Snow Light Snow
7:58 PM 17.1 °F 8.7 °F 10.9 °F 77% 29.69 in 9.0 mi SW 5.8 mph - 0.00 in   Overcast
8:51 PM 17.1 °F 0.1 °F 3.9 °F 56% 29.75 in 10.0 mi West 20.7 mph 27.6 mph 0.00 in   Overcast
9:51 PM 16.0 °F -0.4 °F -4.0 °F 41% 29.80 in 10.0 mi West 18.4 mph 26.5 mph N/A   Overcast
10:51 PM 14.0 °F -2.5 °F -0.9 °F 52% 29.84 in 10.0 mi West 17.3 mph 24.2 mph N/A   Clear
11:51 PM 10.9 °F -5.9 °F -0.0 °F 61% 29.88 in 10.0 mi WNW 16.1 mph 28.8 mph N/A   Partly Cloudy